{"data":{"norad_id":59664,"intl_designator":"2024-084L","name":"STARLINK-31910","alt_names":[],"object_type":"PAYLOAD","status":"ACTIVE","operator":null,"country":"US","launch_date":"2024-05-06","launch_site_code":"AFETR","launch_vehicle":null,"mission":null,"orbit_class":"UNKNOWN","rcs_meters":null,"size_class":null,"mass_kg":null,"dimensions":null,"purposes":["comms"],"wikipedia_slug":null,"has_3d_model":false,"image_url":null,"decayed_at":null,"tle_current":{"epoch":"2026-05-24T22:00:08.088192Z","epoch_age_seconds":96319,"freshness":"FRESH","line1":"1 59664U 24084L   26144.91676028  .00005459  00000+0  20767-3 0  9991","line2":"2 59664  43.0028 331.0818 0001588 272.5871  87.4799 15.27595703116036","mean_motion":15.27595703,"eccentricity":0.0001588,"inclination_deg":43.0028,"raan_deg":331.0818,"arg_perigee_deg":272.5871,"mean_anomaly_deg":87.4799,"bstar":0.00020767,"rev_number":11603,"period_min":94.265779693673,"perigee_km":481.91252712605,"apogee_km":484.09162489659,"semimajor_km":6861.1390760113,"source":"CELESTRAK","updated_at":"2026-05-25T13:38:19.019710Z"}}}